ギブス彗星

C/2018 A6 ( Gibbs )

English version
Home page
Updated on August 15, 2020

---------------------------------------------------------------------

・ プロフィール

発見日 2018年1月15日
発見光度 19.3等
発見者 A. R. Gibbs (Mount Lemmon)

・ 写真集

・ 軌道要素

Epoch 2019 July 16.0 TT = JDT 2458680.5
T 2019 July 14.26802 TT                                 Rudenko
q   3.0177599            (2000.0)            P               Q
n   0.01637774     Peri.  264.52786     -0.16525299     +0.93045705
a  15.3567735      Node   340.38600     +0.22092708     -0.28822750
e   0.8034900      Incl.   76.95481     -0.96118816     -0.22621800
P  60.2
From 507 observations 2017 Apr. 3-2020 July 31, mean residual 0".5.

・ 星図

・ 光度変化

        m1 = 4.2 + 5 logΔ + 15.0 log r

---------------------------------------------------------------------

軌道要素はM.P.E.C. 2020-P19に掲載されたものです。
星図はステラナビゲータ Ver.10 (アストロアーツ) で作成したものです。
光度グラフはComet for Windowsで作成したものです。

---------------------------------------------------------------------

Copyright(C) Seiichi Yoshida (comet@aerith.net). All rights reserved.